Trinidad, CO

6:43 AM MDT on May 27, 2018 (GMT -0600)
Stokes

Weather History for KTAD - January, 2013

Change the Weather History Date:

Thursday, January 10, 2013

  Actual Average Record
Temperature  
Mean Temperature 42 °F 32 °F  
Max Temperature 60 °F 47 °F 66 °F (1956)
Min Temperature 24 °F 17 °F -28 °F (1962)
Degree Days  
Heating Degree Days 23 33  
Month to date heating degree days 350 330  
Since 1 July heating degree days 2399 2598  
Cooling Degree Days 0 0  
Month to date cooling degree days 0 0  
Year to date cooling degree days 0 0  
Moisture  
Dew Point 10 °F    
Average Humidity 30    
Maximum Humidity 50    
Minimum Humidity 9    
Precipitation  
Precipitation 0.00 in 0.02 in 0.31 in (2002)
Month to date precipitation 0.00 0.14  
Year to date precipitation 0.00 0.14  
Sea Level Pressure  
Sea Level Pressure 29.75 in    
Wind  
Wind Speed 7 mph (WSW)    
Max Wind Speed 24 mph    
Max Gust Speed 30 mph    
Visibility 10 miles    
Events      
T = Trace of Precipitation, MM = Missing Value Source: NWS Daily Summary

Daily Weather History Graph

Daily Weather History Graph

Search for Another Location

Airport or City:

Astronomy

Jan. 10, 2013 Rise Set
Actual Time 7:11 AM MST 4:59 PM MST
Civil Twilight 6:42 AM MST 5:27 PM MST
Nautical Twilight 6:10 AM MST 5:59 PM MST
Astronomical Twilight 5:39 AM MST 6:31 PM MST
Moon 5:53 AM MST (1/10) 4:09 PM MST (1/10)
Length of Visible Light 10h 44m
Length of Day
9h 47m
Waning Crescent, 2% of the Moon is Illuminated
Jan 10
Waning Crescent
Jan 11
New
Jan 18
First Quarter
Jan 26
Full
Feb 3
Last Quarter

Hourly Weather History & Observations

Time (MST) Temp. Windchill Dew Point Humidity Pressure Visibility Wind Dir Wind Speed Gust Speed Precip Events Conditions
12:54 AM 34.0 °F 26.6 °F 12.0 °F 40% 30.04 in 10.0 mi SW 9.2 mph - N/A   Scattered Clouds
1:54 AM 33.1 °F 30.0 °F 12.0 °F 42% 30.02 in 10.0 mi SW 3.5 mph - N/A   Clear
2:54 AM 32.0 °F 26.4 °F 10.9 °F 42% 29.97 in 10.0 mi West 5.8 mph - N/A   Overcast
3:54 AM 28.9 °F 20.4 °F 10.9 °F 47% 29.94 in 10.0 mi WNW 9.2 mph - N/A   Overcast
4:54 AM 33.1 °F 26.1 °F 10.9 °F 40% 29.91 in 10.0 mi West 8.1 mph - N/A   Overcast
5:54 AM 28.0 °F 20.0 °F 12.0 °F 51% 29.94 in 10.0 mi WNW 8.1 mph - N/A   Overcast
6:54 AM 26.1 °F 18.4 °F 10.9 °F 53% 29.97 in 10.0 mi NNW 6.9 mph - N/A   Mostly Cloudy
7:54 AM 28.9 °F 21.9 °F 10.0 °F 45% 29.95 in 10.0 mi West 6.9 mph - N/A   Clear
8:54 AM 35.1 °F - 12.9 °F 40% 29.88 in 10.0 mi Calm Calm - N/A   Clear
9:54 AM 44.1 °F 40.1 °F 15.1 °F 31% 29.81 in 10.0 mi SSW 6.9 mph - N/A   Clear
10:54 AM 46.9 °F - 12.0 °F 24% 29.76 in 10.0 mi West 3.5 mph - N/A   Clear
11:54 AM 50.0 °F - 16.0 °F 26% 29.68 in 10.0 mi Calm Calm - N/A   Clear
12:54 PM 52.0 °F - 19.9 °F 28% 29.63 in 10.0 mi East 4.6 mph - N/A   Clear
1:54 PM 55.9 °F - 21.9 °F 27% 29.62 in 10.0 mi Calm Calm - N/A   Clear
2:54 PM 54.0 °F - 19.0 °F 25% 29.62 in 10.0 mi East 3.5 mph - N/A   Clear
3:54 PM 57.0 °F - -2.9 °F 9% 29.60 in 10.0 mi SW 8.1 mph - N/A   Clear
4:54 PM 51.1 °F - -2.0 °F 11% 29.59 in 10.0 mi SSW 12.7 mph - N/A   Clear
5:54 PM 46.9 °F - 1.9 °F 16% 29.62 in 10.0 mi SSW 17.3 mph - N/A   Clear
6:54 PM 46.0 °F 39.3 °F 3.9 °F 18% 29.63 in 10.0 mi SW 16.1 mph - N/A   Clear
7:54 PM 45.0 °F 41.8 °F 6.1 °F 20% 29.62 in 10.0 mi South 5.8 mph - N/A   Clear
8:54 PM 44.1 °F 39.5 °F 7.0 °F 22% 29.58 in 10.0 mi SSW 8.1 mph - N/A   Clear
9:54 PM 42.1 °F 38.4 °F 7.0 °F 24% 29.54 in 10.0 mi WSW 5.8 mph - N/A   Clear
10:54 PM 42.1 °F 36.6 °F 9.0 °F 26% 29.52 in 10.0 mi SW 9.2 mph - N/A   Clear
11:54 PM 46.9 °F - 9.0 °F 21% 29.47 in 10.0 mi SSW 15.0 mph - N/A   Clear